Weather History for Pensacola NAS, FL

Change the Weather History Date:

Saturday, October 27, 2012

  Actual Average Record
Temperature  
Mean Temperature 60 °F -  
Max Temperature 68 °F 75 °F 87 °F (2010)
Min Temperature 51 °F 56 °F 33 °F (1996)
Degree Days  
Heating Degree Days 6    
Growing Degree Days 10 (Base 50)    
Moisture  
Dew Point 52 °F    
Average Humidity 81    
Maximum Humidity 94    
Minimum Humidity 63    
Precipitation  
Precipitation 0.00 in - - ()
Sea Level Pressure  
Sea Level Pressure 29.90 in    
Wind  
Wind Speed 13 mph (NNW)    
Max Wind Speed 18 mph    
Max Gust Speed 29 mph    
Visibility 10 miles    
Events      
Averages and records for this station are not official NWS values.
T = Trace of Precipitation, MM = Missing Value Source: NWS Daily Summary

Daily Weather History Graph

Daily Weather History Graph

Search for Another Location

Airport:

Trip Planner

Search our weather history database for the weather conditions in past years. The results will help you decide how hot, cold, wet, or windy it might be!

Date:

Astronomy

Oct. 27, 2012 Rise Set
Actual Time 7:00 AM CDT 6:05 PM CDT
Civil Twilight 6:35 AM CDT 6:30 PM CDT
Nautical Twilight 6:07 AM CDT 6:58 PM CDT
Astronomical Twilight 5:39 AM CDT 7:26 PM CDT
Moon 4:47 PM CDT 5:01 AM CDT
Length of Visible Light 11h 54m
Length of Day
11h 05m
Waxing Gibbous, 96% of the Moon is Illuminated
Oct 27
Waxing Gibbous
Oct 29
Full
Nov 6
Last Quarter
Nov 13
New
Nov 20
First Quarter

Hourly Weather History & Observations

Time (CDT) Temp. Dew Point Humidity Pressure Visibility Wind Dir Wind Speed Gust Speed Precip Events Conditions
12:56 AM 68.0 °F 63.0 °F 84% 29.89 in 10.0 mi NNW 9.2 mph - N/A   Clear
1:56 AM 66.0 °F 63.0 °F 90% 29.88 in 10.0 mi NNW 8.1 mph - N/A   Clear
2:56 AM 64.9 °F 61.0 °F 87% 29.88 in 10.0 mi NNW 13.8 mph 21.9 mph N/A   Clear
3:56 AM 62.1 °F 57.9 °F 86% 29.87 in 10.0 mi NNW 12.7 mph 23.0 mph N/A   Clear
4:56 AM 60.1 °F 57.0 °F 90% 29.88 in 10.0 mi NNW 12.7 mph 21.9 mph N/A   Mostly Cloudy
5:26 AM 57.2 °F 55.4 °F 94% 29.88 in 10.0 mi NNW 13.8 mph 23.0 mph N/A   Scattered Clouds
5:56 AM 57.0 °F 54.0 °F 89% 29.90 in 10.0 mi NNW 18.4 mph 26.5 mph N/A   Scattered Clouds
6:56 AM 55.9 °F 54.0 °F 93% 29.90 in 10.0 mi North 15.0 mph 19.6 mph N/A   Clear
7:24 AM 55.4 °F 53.6 °F 94% 29.91 in 10.0 mi North 13.8 mph 21.9 mph N/A   Mostly Cloudy
7:56 AM 55.9 °F 53.1 °F 90% 29.92 in 10.0 mi NNW 12.7 mph 23.0 mph N/A   Overcast
8:56 AM 55.9 °F 52.0 °F 87% 29.93 in 10.0 mi North 16.1 mph 23.0 mph N/A   Mostly Cloudy
9:56 AM 57.9 °F 52.0 °F 81% 29.93 in 10.0 mi NNW 16.1 mph 21.9 mph N/A   Mostly Cloudy
10:56 AM 59.0 °F 51.1 °F 75% 29.92 in 10.0 mi NNW 12.7 mph 25.3 mph N/A   Partly Cloudy
11:56 AM 62.1 °F 52.0 °F 70% 29.91 in 10.0 mi North 13.8 mph 23.0 mph N/A   Partly Cloudy
12:56 PM 64.0 °F 52.0 °F 65% 29.88 in 10.0 mi NNW 11.5 mph 21.9 mph N/A   Partly Cloudy
1:56 PM 66.0 °F 53.1 °F 63% 29.87 in 10.0 mi North 15.0 mph 23.0 mph N/A   Partly Cloudy
2:56 PM 61.0 °F 50.0 °F 67% 29.86 in 10.0 mi NNW 17.3 mph 23.0 mph N/A   Partly Cloudy
3:27 PM 57.2 °F 48.2 °F 72% 29.86 in 10.0 mi North 15.0 mph 25.3 mph N/A   Mostly Cloudy
3:56 PM 57.0 °F 48.9 °F 74% 29.86 in 10.0 mi North 15.0 mph 24.2 mph N/A   Mostly Cloudy
4:56 PM 54.0 °F 48.0 °F 80% 29.87 in 10.0 mi North 15.0 mph 25.3 mph N/A   Overcast
5:30 PM 53.6 °F 48.2 °F 82% 29.88 in 10.0 mi NNW 16.1 mph 28.8 mph N/A   Overcast
5:43 PM 53.6 °F 48.2 °F 82% 29.88 in 10.0 mi NNW 16.1 mph 27.6 mph N/A   Overcast
5:56 PM 53.1 °F 48.0 °F 83% 29.89 in 10.0 mi North 15.0 mph 23.0 mph N/A   Overcast
6:56 PM 52.0 °F 46.9 °F 83% 29.91 in 10.0 mi NNW 16.1 mph 26.5 mph N/A   Overcast
7:40 PM 51.8 °F 46.4 °F 82% 29.90 in 10.0 mi North 15.0 mph 25.3 mph N/A   Overcast
7:56 PM 52.0 °F 46.9 °F 83% 29.91 in 10.0 mi North 15.0 mph 28.8 mph N/A   Overcast
8:56 PM 52.0 °F 46.9 °F 83% 29.93 in 10.0 mi NNW 11.5 mph 23.0 mph N/A   Overcast
9:56 PM 53.1 °F 46.9 °F 80% 29.93 in 10.0 mi North 15.0 mph 23.0 mph N/A   Overcast
10:56 PM 53.1 °F 46.0 °F 77% 29.93 in 10.0 mi NNW 10.4 mph 23.0 mph N/A   Overcast
11:56 PM 53.1 °F 46.0 °F 77% 29.92 in 10.0 mi North 11.5 mph 23.0 mph N/A   Overcast